< < Back
Terminal Aerodrome Forecast


Current Version              Previous Versions:   1  2  3  4  5  6  7  8  9  

Terminal Aerodrome Forecast

392
FTUS42 KGSP 022332
TAFAVL
TAF
KAVL 022332Z 0300/0324 33003KT P6SM FEW090
      TEMPO 0310/0312 4SM BR
     FM031500 33006KT P6SM FEW050=



Latest METAR

519
SAUS70 KWBC 040100
MTRAVL
METAR KAVL 040054Z 34007KT 10SM CLR 27/14 A3001 RMK AO2 SLP136
T02670139


USA.gov is the U.S. government's official web portal to all federal, state and local government web resources and services.